Terminal Aerodrome Forecast
Issued by NWS Portland, OR

Home | Current Version | Previous Version | Text Only | Print | Product List | Glossary On
Versions: 1 2 3 4 5 6 7 8 9 10 11 12 13 14 15 16 17 18 19 20 21 22 23 24 25 26 27
000
FTUS46 KPQR 270909 AAA
TAFPDX
TAF AMD
KPDX 270909Z 2709/2806 19005KT P6SM -SHRA SCT025 BKN050
      TEMPO 2712/2716 5SM SHRA BR BKN025 OVC050=

USA.gov is the U.S. government's official web portal to all federal, state and local government web resources and services.